Regional Weather Roundup
Issued by NWS Upton, NY

Current Version | Previous Version | Text Only | Print | Product List | Glossary On
Versions: 1 2 3 4 5 6 7 8 9 10 11 12 13 14 15 16 17 18 19 20 21 22 23 24 25 26 27 28
000
ASUS41 KOKX 241705
RWROKX

REGIONAL WEATHER ROUNDUP
NATIONAL WEATHER SERVICE NEW YORK NY
100 PM EDT TUE MAY 24 2016

NOTE: "FAIR" INDICATES FEW OR NO CLOUDS BELOW 12,000 FEET WITH NO
SIGNIFICANT WEATHER AND/OR OBSTRUCTIONS TO VISIBILITY.

NYZ071-072-176-178-NJZ106-104-241800-
NEW YORK CITY METRO AREA


CITY           SKY/WX    TMP DP  RH WIND       PRES   REMARKS
CENTRAL PARK   PTSUNNY   66  58  75 VRB3      29.95S
LAGUARDIA APRT PTSUNNY   68  60  75 VRB5      29.92S
KENNEDY INTL   PTSUNNY   71  56  58 NW8       29.93R
NEWARK/LIBERTY CLOUDY    70  58  65 SW8       29.92F
BRNX BOT. GARD   N/A     68  55  64 W10       29.94R
TETERBORO      CLOUDY    69  56  62 W5        29.91F
$$

NYZ177-179-078>081-241800-
LONG ISLAND NEW YORK

CITY           SKY/WX    TMP DP  RH WIND       PRES   REMARKS
FARMINGDALE    CLOUDY    66  56  70 VRB7      29.91S
ISLIP          CLOUDY    65  55  70 NW9       29.90R
SHIRLEY        CLOUDY    64  58  80 NW7       29.90S
RIVERHEAD        N/A     61  59  94 NE1       29.89S
WESTHAMPTON    CLOUDY    56  56 100 NW6       29.91R
EAST HAMPTON   CLOUDY    58  57  94 N6        29.89S FOG
MONTAUK POINT    N/A     56  55  97 NW3       29.91R
$$

NYZ052-065-067-241800-
HUDSON VALLEY

CITY           SKY/WX    TMP DP  RH WIND       PRES   REMARKS
WHITE PLAINS   PTSUNNY   68  56  65 W8        29.91S
NEWBURGH       PTSUNNY   66  55  68 VRB6      29.94R
MONTGOMERY     CLOUDY    68  55  63 E9        29.91F
POUGHKEEPSIE   CLOUDY    66  55  67 VRB5      29.91S
ALBANY         LGT RAIN  65  55  70 E5        29.93S
$$

NJZ001-105-106-008-010-013-015-019>022-104-241800-
NEW JERSEY

CITY           SKY/WX    TMP DP  RH WIND       PRES   REMARKS
NEWARK/LIBERTY CLOUDY    70  58  65 SW8       29.92F
TETERBORO      CLOUDY    69  56  62 W5        29.91F
CALDWELL       CLOUDY    69  57  65 VRB5      29.92F
MORRISTOWN     CLOUDY    68  57  68 W8        29.92F
SOMERVILLE     CLOUDY    70  60  70 CALM      29.91F
SUSSEX         CLOUDY    73  55  53 E7        29.91F
ANDOVER          N/A     72  52  49 CALM      29.92F
TRENTON        CLOUDY    72  56  57 VRB6      29.93F
MILLVILLE      CLOUDY    76  53  44 NW8       29.97S
ATLANTIC CITY  CLOUDY    73  55  53 NW9       29.95F
WRIGHTSTOWN    NOT AVBL
TOMS RIVER     CLOUDY    70  54  56 N8        29.95R
BELMAR         CLOUDY    67  57  70 NW7       29.95S
$$

PAZ047>061-062-071-241800-
EASTERN PENNSYLVANIA

CITY           SKY/WX    TMP DP  RH WIND       PRES   REMARKS
PHILADELPHIA   CLOUDY    76  52  43 SW16      29.95F
ALLENTOWN      MOSUNNY   80  46  30 NW10      29.91F
SCRANTON       SUNNY     78  42  27 N14G24    29.93F
$$

CTZ002-004>006-009-010-012-RIZ004-006-007-MAZ004-011-015-241800-
SOUTHERN NEW ENGLAND
 IN CT

CITY           SKY/WX    TMP DP  RH WIND       PRES   REMARKS
BRADLEY INTL   CLOUDY    63  56  78 N13       29.89S
HARTFORD       CLOUDY    65  56  72 N9        29.89S
DANBURY        CLOUDY    68  52  56 N10       29.91S
WTRBRY/OXFORD  CLOUDY    64  54  68 NE14      29.91S
BRIDGEPORT     CLOUDY    68  57  68 N6        29.89S
MERIDEN        CLOUDY    62  56  80 N8G17     29.90R
NEW HAVEN      CLOUDY    65  56  72 NE13      29.89S
CHESTER        CLOUDY    61  57  88 NE5       29.89S
GROTON         LGT RAIN  58  58 100 S3        29.88F FOG
WILLIMANTIC    CLOUDY    63  54  72 NE10G18   29.89S

 IN RI

CITY           SKY/WX    TMP DP  RH WIND       PRES   REMARKS
PROVIDENCE     CLOUDY    58  53  84 N12       29.90S
BLOCK ISLAND   CLOUDY    56  54  93 N10       29.89R
WESTERLY       CLOUDY    60  54  80 N7        29.89R

 IN MA

CITY           SKY/WX    TMP DP  RH WIND       PRES   REMARKS
BOSTON         CLOUDY    54  52  93 NE12      29.94S FOG
WORCESTER      NOT AVBL
WESTFIELD      CLOUDY    63  56  78 N8        29.90F
PROVINCETOWN   CLOUDY    61  57  87 VRB5      29.91S
NANTUCKET      CLOUDY    59  54  83 S10       29.90S
$$

ANZ330-335-338-340-345-350-353-355-241800-
COASTAL MARINE OBSERVATIONS


STATION/POSITION TIME  SKY/WX   TEMP    WIND        PRES    VSBY  WAVE
                                AIR SEA DIR/SP/G                  HT/PER
                 (UTC)          (F)     (DEG/KT/KT) (MB)    (MI)  (FT/S)
NY HARB ENTRANCE 1550            59 57  230/  6/  6 1012.8          3/ 8
20S FIRE ISLAND  1550            56 54  300/ 10/ 12 1012.7          4/ 9
GREAT SOUTH BAY  1615            64 64  320/ 12/ 16   N/A
23 SSW MONTAUK P 1650            54 54  240/  6/  8 1011.9          4/ 9
15 E BARNEGAT LI 1622               55                N/A           3/10
HUDSON CANYON    1550            54 53              1013.1          4/ 9
KINGS POINT      1600            62 57              1012.9
EXECUTION ROCKS  NOT AVBL
CENTRAL LI SOUND NOT AVBL
EASTERN LI SOUND 1600            56 53  110/  4/  6   N/A
ROBBINS REEF     1600            63     300/  3/  3 1012.8
$$


>>>>>>>>>>>>>>>>>>>>>>>>>>>> KEY <<<<<<<<<<<<<<<<<<<<<<<<<<<
>                                                          <
>     SKY/WX - SKY CONDITION/PRESENT WEATHER               <
>     TMP    - TEMPERATURE IN FAHRENHEIT                   <
>     DP     - DEWPOINT IN FAHRENHEIT                      <
>     RH     - RELATIVE HUMIDITY IN PERCENT                <
>     WIND   - DIRECTION AND SPEED IN MPH                  <
>     PRES   - MEAN SEA LEVEL PRESSURE IN INCHES OF HG     <
>     WCI    - WIND CHILL INDEX                            <
>     VSB    - VISIBILITY IN MILES                         <
>     HX     - HEAT INDEX                                  <
>     TC     - TEMPERATURE IN CELSIUS                      <
>     VRB    - VARIABLE WIND DIRECTION                     <
>                                                          <
>>>>>>>>>>>>>>>>>>>>>>>>>>>> KEY <<<<<<<<<<<<<<<<<<<<<<<<<<<






USA.gov is the U.S. government's official web portal to all federal, state and local government web resources and services.